Home > Weather > Murau > Past weeks

Flag for Austria Past Weather in Murau, Styria, Austria — Yesterday and Last 2 Weeks

Now
52 °F

Passing clouds.


Feels Like: 52 °F
Forecast: 49 / 81 °F
Wind: 2 mph from North

Location: Zeltweg

Current Time: Aug 25, 2016 at 6:53:12 AM

Latest Report: Aug 25, 2016 at 5:50 AM


Visibility: 3 mi

Pressure: 30.30 "Hg (27.36 "Hg at 848m altitude)

Humidity: 94%

Dew Point: 50 °F

Location of MurauLocation

Past Weather in Murau — Graph

°F

Murau Temperature Yesterday

Maximum temperature yesterday: 79 °F (at 3:20 PM)
Minimum temperature yesterday: 48 °F (at 5:50 AM)
Average temperature yesterday: 67 °F

High & Low Weather Summary for the Past Weeks

 TemperatureHumidityPressure
High82 °F (Aug 14, 3:50 PM)100% (Aug 10, 4:50 PM)30.42 "Hg (Aug 10, 4:50 PM)
Low39 °F (Aug 12, 5:50 AM)34% (Aug 14, 2:20 PM)29.86 "Hg (Aug 18, 3:50 PM)
Average63 °F72%30.15 "Hg
* Reported Aug 10 5:50 AM — Aug 24 10:50 PM, Murau, Weather by CustomWeather, © 2016

Note: Actual official high and low records may vary slightly from our data, if they occured in-between our weather recording intervals... More about our weather records

Advertising

Murau Weather History for the Previous 24 Hours

Scroll right to see more
 ConditionsComfort  
Time TempWeatherWind HumidityBarometerVisibility
10:50 PM
Wed, Aug 24
63 °FClear.2 mph77%30.30 "Hg25 mi
9:50 PM64 °FPassing clouds.2 mph73%30.30 "Hg25 mi
7:50 PM72 °FPassing clouds.8 mph57%30.27 "Hg31 mi
6:50 PM75 °FPassing clouds.7 mph50%30.24 "Hg31 mi
5:50 PM77 °FPassing clouds.9 mph42%30.27 "Hg31 mi
4:50 PM77 °FPassing clouds.8 mph39%30.27 "Hg31 mi
4:20 PM79 °FPassing clouds.7 mph42%30.27 "Hg31 mi
3:50 PM77 °FPassing clouds.9 mph42%30.27 "Hg31 mi
3:20 PM79 °FPassing clouds.9 mph39%30.27 "Hg31 mi
2:50 PM77 °FPassing clouds.6 mph42%30.27 "Hg31 mi
2:20 PM77 °FPassing clouds.6 mph42%30.30 "Hg31 mi
1:50 PM75 °FPassing clouds.7 mph44%30.30 "Hg31 mi
1:20 PM75 °FPassing clouds.5 mph44%30.30 "Hg31 mi
12:20 PM73 °FPassing clouds.7 mph50%30.33 "Hg31 mi
11:50 AM72 °FPassing clouds.5 mph53%30.33 "Hg31 mi
11:20 AM68 °FPassing clouds.2 mph60%30.33 "Hg31 mi
10:50 AM66 °FPassing clouds.2 mph60%30.36 "Hg31 mi
10:20 AM64 °FPassing clouds.1 mph64%30.36 "Hg31 mi
9:50 AM64 °FPassing clouds.2 mph68%30.36 "Hg31 mi
9:20 AM61 °FPassing clouds.2 mph72%30.36 "Hg31 mi
8:50 AM59 °FPassing clouds.1 mph77%30.36 "Hg31 mi
8:20 AM57 °FPassing clouds.1 mph77%30.39 "Hg31 mi
7:50 AM52 °FPassing clouds.1 mph94%30.39 "Hg31 mi
7:20 AM50 °FSunny.1 mph100%30.39 "Hg31 mi
6:50 AM48 °FFog.1 mph94%30.36 "Hg31 mi
Weather by CustomWeather, © 2016

See weather overviewHow to use our weather pages